Weather History for Muskegon, MI

Change the Weather History Date:

Tuesday, February 5, 2013

  Actual Average Record
Temperature  
Mean Temperature 19 °F 26 °F  
Max Temperature 31 °F 31 °F 51 °F (1946)
Min Temperature 6 °F 20 °F -16 °F (1918)
Degree Days  
Heating Degree Days 46 39  
Month to date heating degree days 248 199  
Since 1 July heating degree days 3561 3871  
Cooling Degree Days 0 0  
Month to date cooling degree days 0 0  
Year to date cooling degree days 0 0  
Moisture  
Dew Point 17 °F    
Average Humidity 76    
Maximum Humidity 88    
Minimum Humidity 63    
Precipitation  
Precipitation 0.08 in 0.05 in 0.61 in (1924)
Month to date precipitation 0.53 0.28  
Year to date precipitation 6.01 2.31  
Snow  
Snow 1.50 in 0.80 in 7.30 in (1917)
Month to date snowfall 14.0 4.1  
Since 1 July snowfall 53.6 67.2  
Snow Depth 7.00 in    
Sea Level Pressure  
Sea Level Pressure 29.85 in    
Wind  
Wind Speed 11 mph (SW)    
Max Wind Speed 23 mph    
Max Gust Speed 30 mph    
Visibility 6 miles    
Events Fog , Snow    
T = Trace of Precipitation, MM = Missing Value Source: NWS Daily Summary

Daily Weather History Graph

Daily Weather History Graph

Search for Another Location

Airport:

Trip Planner

Search our weather history database for the weather conditions in past years. The results will help you decide how hot, cold, wet, or windy it might be!

Date:

Astronomy

Feb. 05, 2013 Rise Set
Actual Time 7:55 AM EST 6:03 PM EST
Civil Twilight 7:25 AM EST 6:32 PM EST
Nautical Twilight 6:51 AM EST 7:06 PM EST
Astronomical Twilight 6:18 AM EST 7:39 PM EST
Moon 3:39 AM EST (2/5) 1:16 PM EST (2/5)
Length of Visible Light 11h 07m
Length of Day
10h 07m
Waning Crescent, 27% of the Moon is Illuminated
Feb 5
Waning Crescent
Feb 10
New
Feb 17
First Quarter
Feb 25
Full
Mar 4
Last Quarter

Hourly Weather History & Observations

Time (EST) Temp. Windchill Dew Point Humidity Pressure Visibility Wind Dir Wind Speed Gust Speed Precip Events Conditions
12:55 AM 14.0 °F - 7.0 °F 74% 29.97 in 10.0 mi Calm Calm - N/A   Overcast
1:50 AM 12.2 °F 6.1 °F 6.8 °F 79% 29.92 in 10.0 mi SE 3.5 mph - N/A   Overcast
1:55 AM 12.9 °F 6.9 °F 6.1 °F 74% 29.96 in 10.0 mi SE 3.5 mph - N/A   Overcast
2:55 AM 12.0 °F 5.9 °F 5.0 °F 73% 29.96 in 10.0 mi SE 3.5 mph - N/A   Overcast
3:28 AM 8.6 °F 2.0 °F 3.2 °F 79% 29.91 in 10.0 mi SE 3.5 mph - N/A   Partly Cloudy
3:55 AM 7.0 °F -3.3 °F 3.0 °F 84% 29.93 in 10.0 mi SE 5.8 mph - N/A   Clear
4:55 AM 8.1 °F -2.0 °F 3.0 °F 80% 29.92 in 10.0 mi SE 5.8 mph - N/A   Partly Cloudy
5:14 AM 8.6 °F -1.3 °F 3.2 °F 79% 29.89 in 10.0 mi SE 5.8 mph - N/A   Mostly Cloudy
5:55 AM 12.0 °F 1.5 °F 6.1 °F 77% 29.92 in 10.0 mi SE 6.9 mph - N/A   Mostly Cloudy
6:55 AM 15.1 °F 3.3 °F 9.0 °F 77% 29.90 in 10.0 mi SE 9.2 mph - N/A   Overcast
7:09 AM 15.8 °F 6.1 °F 10.4 °F 79% 29.87 in 10.0 mi SSE 6.9 mph - N/A   Overcast
7:55 AM 17.1 °F 5.0 °F 10.0 °F 74% 29.89 in 10.0 mi SSE 10.4 mph - N/A   Overcast
8:04 AM 17.6 °F 5.7 °F 10.4 °F 73% 29.85 in 10.0 mi SSE 10.4 mph - N/A   Overcast
8:55 AM 18.0 °F 4.8 °F 10.9 °F 74% 29.88 in 6.0 mi SSE 12.7 mph - 0.00 in Snow Light Snow
9:17 AM 19.4 °F 7.9 °F 12.2 °F 74% 29.83 in 2.0 mi SSE 10.4 mph - 0.00 in Snow Light Snow
9:41 AM 19.4 °F 7.2 °F 14.0 °F 80% 29.82 in 3.0 mi SSE 11.5 mph - 0.00 in Snow Light Snow
9:51 AM 19.4 °F 8.6 °F 14.0 °F 80% 29.82 in 4.0 mi SSE 9.2 mph - 0.00 in Snow Light Snow
9:55 AM 19.9 °F 9.3 °F 15.1 °F 81% 29.86 in 3.0 mi SSE 9.2 mph - 0.00 in Snow Light Snow
10:55 AM 28.0 °F 14.9 °F 19.0 °F 69% 29.82 in 9.0 mi SW 19.6 mph - 0.00 in Snow Light Snow
11:55 AM 30.0 °F 17.9 °F 23.0 °F 75% 29.81 in 9.0 mi SSW 18.4 mph 24.2 mph 0.00 in Snow Light Snow
12:50 PM 30.2 °F 18.1 °F 24.8 °F 80% 29.76 in 1.5 mi SW 18.4 mph 27.6 mph 0.00 in Snow Light Snow
12:55 PM 30.9 °F 18.4 °F 24.1 °F 76% 29.79 in 1.0 mi SW 20.7 mph 27.6 mph 0.00 in Snow Light Snow
1:00 PM 30.2 °F 17.4 °F 24.8 °F 80% 29.76 in 0.8 mi SW 20.7 mph 28.8 mph 0.00 in Snow Light Snow
1:15 PM 30.2 °F 17.1 °F 24.8 °F 80% 29.76 in 1.0 mi SW 21.9 mph 27.6 mph 0.00 in Snow Light Snow
1:17 PM 30.2 °F 17.1 °F 24.8 °F 80% 29.75 in 0.8 mi SW 21.9 mph 27.6 mph 0.00 in Snow Light Snow
1:22 PM 28.4 °F 15.8 °F 24.8 °F 86% 29.76 in 0.2 mi WSW 18.4 mph 29.9 mph 0.00 in Fog , Snow Heavy Snow
1:40 PM 30.2 °F 18.9 °F 26.6 °F 86% 29.75 in 0.5 mi SW 16.1 mph 23.0 mph 0.02 in Fog , Snow Snow
1:51 PM 30.2 °F 18.1 °F 26.6 °F 86% 29.75 in 1.0 mi SW 18.4 mph 25.3 mph 0.02 in Snow Light Snow
1:52 PM 30.0 °F 18.7 °F 26.1 °F 85% 29.78 in 1.0 mi WSW 16.1 mph 24.2 mph 0.02 in Snow Light Snow
1:55 PM 30.0 °F 18.7 °F 26.1 °F 85% 29.78 in 1.0 mi WSW 16.1 mph 24.2 mph 0.02 in Snow Light Snow
2:02 PM 30.2 °F 19.3 °F 24.8 °F 80% 29.75 in 1.0 mi WSW 15.0 mph 24.2 mph 0.00 in Snow Light Snow
2:09 PM 30.2 °F 18.1 °F 24.8 °F 80% 29.75 in 1.0 mi WSW 18.4 mph 26.5 mph 0.00 in Snow Light Snow
2:49 PM 28.4 °F 18.0 °F 23.0 °F 80% 29.76 in 3.0 mi WSW 12.7 mph - 0.00 in Snow Light Snow
2:55 PM 28.9 °F 17.7 °F 23.0 °F 78% 29.79 in 3.0 mi West 15.0 mph 20.7 mph 0.00 in Snow Light Snow
3:55 PM 28.9 °F 19.2 °F 21.9 °F 75% 29.81 in 7.0 mi West 11.5 mph - 0.00 in   Overcast
4:49 PM 28.4 °F 18.5 °F 21.2 °F 74% 29.79 in 4.0 mi WNW 11.5 mph - 0.00 in Snow Light Snow
4:55 PM 28.9 °F 19.2 °F 21.9 °F 75% 29.83 in 4.0 mi WNW 11.5 mph - 0.00 in Snow Light Snow
5:01 PM 28.4 °F 19.1 °F 21.2 °F 74% 29.80 in 3.0 mi WNW 10.4 mph - 0.00 in Snow Light Snow
5:53 PM 28.4 °F 19.1 °F 23.0 °F 80% 29.82 in 2.5 mi NW 10.4 mph 19.6 mph 0.00 in Snow Light Snow
5:55 PM 28.0 °F 18.1 °F 23.0 °F 81% 29.86 in 2.5 mi WNW 11.5 mph 19.6 mph 0.00 in Snow Light Snow
5:59 PM 28.4 °F 20.4 °F 23.0 °F 80% 29.83 in 2.0 mi NW 8.1 mph 19.6 mph 0.00 in Snow Light Snow
6:19 PM 28.4 °F 21.2 °F 23.0 °F 80% 29.83 in 4.0 mi WNW 6.9 mph - 0.00 in Snow Light Snow
6:24 PM 28.4 °F 22.2 °F 23.0 °F 80% 29.83 in 6.0 mi WNW 5.8 mph - 0.00 in Snow Light Snow
6:36 PM 28.4 °F 21.2 °F 23.0 °F 80% 29.84 in 7.0 mi NW 6.9 mph - 0.00 in Snow Light Snow
6:55 PM 28.9 °F 19.8 °F 21.9 °F 75% 29.88 in 9.0 mi NW 10.4 mph - 0.00 in Snow Light Snow
7:55 PM 28.0 °F 17.0 °F 21.0 °F 75% 29.92 in 7.0 mi NW 13.8 mph - 0.00 in Snow Light Snow
8:55 PM 27.0 °F 16.1 °F 19.0 °F 72% 29.96 in 9.0 mi NNW 12.7 mph - 0.00 in Snow Light Snow
9:55 PM 27.0 °F 18.7 °F 18.0 °F 69% 29.99 in 9.0 mi North 8.1 mph - 0.00 in Snow Light Snow
10:55 PM 26.1 °F 19.4 °F 16.0 °F 66% 30.01 in 9.0 mi North 5.8 mph - 0.00 in Snow Light Snow
11:28 PM 26.6 °F 20.0 °F 15.8 °F 64% 30.00 in 10.0 mi North 5.8 mph - 0.00 in   Overcast
11:55 PM 26.1 °F 19.4 °F 16.0 °F 66% 30.04 in 10.0 mi NNW 5.8 mph - 0.00 in   Overcast